Location: ??
(35.5052°N, 139.7262°E)
Time: 03:33:11
(UTC+00:00)

Cosmos 1271 Rocket - Pass Details

Date: 20 June 2021
Orbit: 498 x 544 km, 81.2° (Epoch: 26 July)

Event Time Altitude Azimuth Distance (km) Brightness Sun altitude
Rises 18:07:42 0° 340° (NNW) 2,594 6.6 -13.7°
Reaches altitude 10° 18:09:58 10° 330° (NNW) 1,709 5.5 -13.4°
Maximum altitude 18:13:18 31° 267° (W) 897 3.5 -12.9°
Enters shadow 18:15:10 20° 219° (SW) 1,211 3.9 -12.6°
